www.pogodaiklimat.ru

Погода и климат >> Архив погоды >> Норвегия >> Сельджеля


ПОГОДА в Сельджеля

  • Прогноз погоды в Сельджеля
  • Монитор погоды в Сельджеля

АРХИВ ПОГОДЫ в Сельджеля

Время (UTC), дата Ветер
(напр.,м/с)
 
Видим.   Явления Облачность Т
(С)
Тd
(С)
f
(%)
Тe
(С)
Тes
(С)
Комфортность P
(гПа)
Po
(гПа)
Тmin
(С)
Tmax
(С)
R
(мм)
R24
(мм)
S
(см)
01 16.09 В 3
{4}
н/о н/о +2.9 +1.6 91 -1 -1 995.2 980.3
02 16.09 ЮВ 2
{4}
н/о н/о +2.4 +1.4 93 -1 -1 996.0 980.9
03 16.09 В 1
{4}
н/о н/о +2.4 +1.5 94 +1 +1 996.3 981.2
04 16.09 В 1
{3}
н/о н/о +2.3 +1.7 96 0 0 996.6 981.5
05 16.09 В 1
{3}
н/о н/о +2.3 +1.7 96 0 0 997.1 982.0
06 16.09 штиль 0
{4}
н/о н/о +2.7 +2.3 97 +1 +1 997.3 982.3 +1.8 +7.1
07 16.09
{2}
н/о н/о +4.0 +3.4 96 997.7 982.7
08 16.09 штиль 0
{2}
н/о н/о +5.8 +4.3 90 +5 +5 997.9 983.0
09 16.09 С 1
{2}
н/о н/о +7.0 +4.7 85 +6 +6 998.1 983.2
10 16.09 В 1
{2}
н/о н/о +8.0 +5.0 81 +7 +7 998.0 983.2
11 16.09 С 1
{2}
н/о н/о +9.0 +5.0 76 +8 +8 998.3 983.5
12 16.09 штиль 0
{2}
н/о н/о +9.7 +5.5 75 +9 +9 998.0 983.3
13 16.09 С 1
{2}
н/о н/о +9.9 +4.5 69 +10 +10 997.9 983.3
14 16.09 СЗ 1
{2}
н/о н/о +10.3 +4.0 65 +10 +10 997.9 983.2
15 16.09 С 1
{2}
н/о н/о +10.4 +4.1 65 +10 +10 997.7 983.0
16 16.09 штиль 0
{1}
н/о н/о +9.8 +5.6 75 +9 +9 997.6 982.9
17 16.09 В 1
{2}
н/о н/о +8.7 +6.0 83 +8 +8 997.6 982.8
18 16.09 В 1
{4}
н/о н/о +7.7 +5.2 84 +7 +7 997.7 982.9 +2.6 +10.5
19 16.09 В 3
{4}
н/о н/о +6.5 +4.3 86 +3 +3 997.9 983.0
20 16.09 В 2
{4}
н/о н/о +5.5 +3.5 87 +3 +3 998.1 983.1
21 16.09 В 1
{3}
н/о н/о +6.0 +3.8 86 +5 +5 998.2 983.3
22 16.09 штиль 0
{3}
н/о н/о +6.2 +4.4 88 +5 +5 998.4 983.5
23 16.09 ЮВ 1
{2}
н/о н/о +5.9 +4.6 91 +5 +5 998.5 983.6
00 17.09 В 1
{4}
н/о н/о +5.9 +4.4 90 +5 +5 998.6 983.7
01 17.09 В 1
{3}
н/о н/о +5.5 +4.2 91 +4 +4 998.7 983.7
02 17.09 В 2
{3}
н/о н/о +5.0 +3.8 92 +2 +2 999.0 984.0
03 17.09 В 1
{3}
н/о н/о +4.3 +3.1 92 +3 +3 999.2 984.3
04 17.09 В 2
{3}
н/о н/о +3.9 +2.7 92 +1 +1 999.7 984.6
05 17.09 В 2
{3}
н/о н/о +3.7 +2.5 92 +1 +1 1000.0 984.9
06 17.09 ЮВ 1
{3}
н/о н/о +4.5 +3.5 93 +3 +3 1000.5 985.5 +3.6 +7.7
07 17.09 З 1
{1}
н/о н/о +6.1 +4.9 92 +5 +5 1001.2 986.2
08 17.09 С 1
{1}
н/о н/о +7.2 +5.8 91 +6 +6 1001.6 986.7
09 17.09 С 1
{2}
н/о н/о +7.6 +5.9 89 +7 +7 1002.1 987.2
10 17.09 З 1
{2}
н/о н/о +8.9 +6.2 83 +8 +8 1002.5 987.7
11 17.09 ЮЗ 1
{2}
н/о н/о +10.2 +5.6 73 +10 +10 1003.0 988.2
12 17.09 ЮЗ 1
{3}
н/о н/о +10.0 +6.5 79 +10 +10 1003.3 988.5
13 17.09 С 1
{4}
н/о н/о +11.1 +4.8 65 +11 +11 1003.4 988.8
14 17.09 З 1
{5}
н/о н/о +9.8 +5.0 72 +9 +9 1004.1 989.2
15 17.09 Ю 2
{5}
н/о н/о +11.1 +3.7 60 +10 +10 1004.6 989.8
16 17.09 З 1
{4}
н/о н/о +9.1 +4.3 72 +9 +9 1005.1 990.2
17 17.09 Ю 1
{4}
н/о н/о +8.5 +4.2 74 +8 +8 1005.4 990.5
18 17.09 Ю 1
{5}
н/о н/о +7.4 +4.2 80 +7 +7 1006.0 991.0 +4.5 +11.7
19 17.09 ЮВ 1
{3}
н/о н/о +6.4 +4.1 85 +5 +5 1006.4 991.4
20 17.09 В 2
{4}
н/о н/о +6.2 +3.5 83 +4 +4 1006.9 991.9
21 17.09 В 3
{4}
н/о н/о +5.3 +3.2 86 +2 +2 1007.4 992.4
22 17.09 В 1
{4}
н/о н/о +6.2 +3.9 85 +5 +5 1007.7 992.6
23 17.09 ЮВ 2
{3}
н/о н/о +5.6 +3.9 89 +3 +3 1008.0 992.9
00 18.09 ЮВ 2
{4}
н/о н/о +5.1 +3.6 90 +2 +2 1008.2 993.1
01 18.09 ЮВ 1
{4}
н/о н/о +5.0 +3.5 90 +4 +4 1008.4 993.3
02 18.09 СВ 1
{3}
н/о н/о +5.0 +3.8 92 +4 +4 1008.6 993.5
03 18.09 Ю 1
{3}
н/о н/о +5.6 +4.3 91 +4 +4 1008.7 993.6
04 18.09 В 1
{3}
н/о н/о +5.6 +3.9 89 +4 +4 1008.9 993.8
05 18.09 В 1
{2}
н/о н/о +5.7 +4.4 91 +4 +4 1009.3 994.2
06 18.09 ЮВ 1
{4}
н/о н/о +6.0 +5.0 93 +5 +5 1009.7 994.6 +4.7 +7.4
07 18.09 Ю 1
{3}
н/о н/о +7.2 +5.5 89 +6 +6 1010.0 995.0
08 18.09 Ю 1
{2}
н/о н/о +8.4 +5.2 80 +8 +8 1010.6 995.6
09 18.09 В 1
{3}
н/о н/о +9.6 +3.4 65 +9 +9 1010.9 996.1
10 18.09 СЗ 2
{4}
н/о н/о +9.6 +4.0 68 +8 +8 1011.4 996.5
11 18.09 СЗ 2
{4}
н/о н/о +10.2 +3.0 61 +9 +9 1012.0 997.1
12 18.09 СЗ 2
{6}
н/о н/о +11.1 +2.9 57 +10 +10 1012.4 997.6
13 18.09 СЗ 2
{7}
н/о н/о +11.8 +2.0 51 +11 +11 1012.8 998.0
14 18.09 СЗ 3
{7}
н/о н/о +10.9 +1.5 52 +9 +9 1013.4 998.6
15 18.09 СЗ 4
{7}
н/о н/о +9.9 +1.3 55 +8 +8 1014.0 999.0
16 18.09 СЗ 3
{8}
н/о н/о +8.2 +1.6 63 +6 +6 1014.7 999.7
17 18.09 СЗ 3
{8}
н/о н/о +7.6 +0.8 62 +5 +5 1015.3 1000.2
18 18.09 З 2
{8}
н/о н/о +6.7 +0.2 63 +5 +5 1015.9 1000.7 +6.0 +12.1
19 18.09 СЗ 2
{8}
н/о н/о +6.1 +1.5 72 +4 +4 1016.2 1001.0
20 18.09 СЗ 2
{5}
н/о н/о +5.3 +2.0 79 +3 +3 1016.7 1001.5
21 18.09 СЗ 2
{7}
н/о н/о +6.1 +1.3 71 +4 +4 1017.2 1002.0
22 18.09 СЗ 3
{7}
н/о н/о +5.3 +1.8 78 +2 +2 1018.2 1002.9 0.1
23 18.09 СЗ 2
{8}
н/о н/о +4.6 +0.6 75 +2 +2 1018.5 1003.2
00 19.09 СВ 1
{8}
н/о н/о +3.3 +0.5 82 +2 +2 1019.2 1003.8
01 19.09 ЮЗ 1
{4}
н/о н/о +2.8 +0.2 83 +1 +1 1019.6 1004.2
02 19.09 В 2
{4}
н/о н/о +2.9 +0.5 84 -0 -0 1019.8 1004.4
03 19.09 ЮВ 2
{3}
н/о н/о +2.2 +0.3 87 -1 -1 1020.1 1004.6
04 19.09 Ю 2
{5}
н/о н/о +2.1 +0.2 87 -1 -1 1020.2 1004.7
05 19.09 ЮВ 2
{4}
н/о н/о +1.7 -0.2 87 -2 -2 1020.2 1004.7
06 19.09 Ю 2
{7}
н/о н/о +2.9 +1.1 88 -0 -0 1020.1 1004.7 +1.3 +6.9 0.1
07 19.09 Ю 2
{5}
н/о н/о +3.1 +1.5 89 0 0 1020.4 1004.9
08 19.09 Ю 3
{6}
н/о н/о +5.0 +2.0 81 +2 +2 1020.4 1005.1
09 19.09 Ю 3
{6}
н/о н/о +5.8 +2.3 78 +3 +3 1020.7 1005.4
10 19.09 Ю 3
{6}
н/о н/о +7.5 +2.6 71 +5 +5 1020.5 1005.3
11 19.09 З 2
{7}
н/о н/о +6.1 +1.1 70 +4 +4 1021.0 1005.7
12 19.09 ЮЗ 3
{7}
н/о н/о +5.3 +2.8 84 +2 +2 1021.1 1005.8 0.1
13 19.09 СЗ 3
{7}
н/о н/о +5.8 +2.1 77 +3 +3 1021.4 1006.1 0.2
14 19.09 З 1
{6}
н/о н/о +6.6 +1.7 71 +6 +6 1020.5 1005.3 0.2
15 19.09 СВ 1
{8}
н/о н/о +6.2 +2.7 78 +5 +5 1020.2 1005.0
16 19.09 СВ 1
{6}
н/о н/о +5.3 +2.1 80 +4 +4 1020.1 1004.8
17 19.09 В 2
{4}
н/о н/о +4.1 +2.8 91 +1 +1 1020.2 1004.8 0.4
18 19.09 ЮВ 2
{8}
н/о н/о +3.0 +1.8 92 -0 -0 1020.1 1004.7 +2.7 +8.5 0.9
19 19.09 Ю 1
{4}
н/о н/о +3.4 +2.7 95 +2 +2 1020.1 1004.7
20 19.09 ЮВ 1
{4}
н/о н/о +3.1 +1.8 91 +1 +1 1019.5 1004.1
21 19.09 СВ 1
{3}
н/о н/о +3.0 +1.7 91 +1 +1 1019.3 1003.9
22 19.09 штиль 0
{3}
н/о н/о +3.3 +2.0 91 +2 +2 1019.0 1003.6
23 19.09 Ю 2
{5}
н/о н/о +3.5 +2.6 94 0 0 1018.7 1003.3
00 20.09 ЮВ 1
{5}
н/о н/о +3.4 +2.4 93 +2 +2 1018.0 1002.7 0.1
01 20.09 ЮВ 2
{3}
н/о н/о +3.3 +2.3 93 0 0 1017.5 1002.1 0.1
02 20.09 штиль 0
{3}
н/о н/о +2.7 +2.0 95 +1 +1 1016.8 1001.4
03 20.09 В 2
{2}
н/о н/о +2.9 +1.9 93 -0 -0 1016.2 1000.8
04 20.09 В 1
{3}
н/о н/о +2.8 +1.9 94 +1 +1 1015.7 1000.3
05 20.09 В 1
{1}
н/о н/о +2.8 +2.2 96 +1 +1 1014.7 999.3
06 20.09 штиль 0
{3}
н/о н/о +3.3 +2.7 96 +2 +2 1014.2 998.9 +2.5 +3.7 0.2
07 20.09 штиль 0
{1}
н/о н/о +3.8 +3.1 95 +3 +3 1013.6 998.3
08 20.09 В 1
{1}
н/о н/о +4.1 +3.5 96 +3 +3 1013.2 997.9 0.1
09 20.09
{2}
н/о н/о +4.5 +3.6 94 1012.5 997.3 0.1
10 20.09 штиль 0
{2}
н/о н/о +4.8 +3.6 92 +4 +4 1012.1 996.9 0.4
11 20.09 СЗ 1
{2}
н/о н/о +5.1 +4.1 93 +4 +4 1011.7 996.4 0.4
12 20.09 штиль 0
{2}
н/о н/о +5.2 +3.7 90 +4 +4 1011.3 996.1 0.6
13 20.09 штиль 0
{1}
н/о н/о +5.2 +3.5 89 +4 +4 1010.9 995.7 0.3
14 20.09 штиль 0
{1}
н/о н/о +5.3 +4.1 92 +4 +4 1010.0 994.9 0.3
15 20.09 штиль 0
{1}
н/о н/о +5.0 +4.0 93 +4 +4 1010.0 994.8 0.1
16 20.09 Ю 1
{1}
н/о н/о +4.6 +3.9 95 +3 +3 1009.7 994.5 0.2
17 20.09 ЮВ 1
{1}
н/о н/о +4.4 +3.8 96 +3 +3 1009.5 994.3 0.9
18 20.09 штиль 0
{1}
н/о н/о +4.2 +3.6 96 +3 +3 1009.3 994.1 +3.3 +5.5 4
19 20.09 В 1
{2}
н/о н/о +4.1 +3.7 97 +2 +2 1009.5 994.2 0.7
20 20.09 штиль 0
{1}
н/о н/о +4.1 +3.7 97 +3 +3 1009.1 993.9 0.4
21 20.09 штиль 0
{1}
н/о н/о +4.2 +3.8 97 +3 +3 1009.4 994.2 0.5
22 20.09 штиль 0
{1}
н/о н/о +4.1 +3.7 97 +3 +3 1009.4 994.2 0.8
23 20.09 штиль 0
{1}
н/о н/о +4.2 +3.8 97 +3 +3 1009.5 994.3 0.6
00 21.09 С 1
{3}
н/о н/о +4.3 +4.0 98 +3 +3 1009.9 994.7 0.3
01 21.09 штиль 0
{3}
н/о н/о +4.1 +3.8 98 +3 +3 1009.8 994.7 0.3
02 21.09 В 1
{1}
н/о н/о +3.9 +3.6 98 +2 +2 1010.3 995.2
03 21.09 Ю 1
{1}
н/о н/о +3.8 +3.5 98 +2 +2 1010.7 995.6
04 21.09 ЮВ 1
{1}
н/о н/о +3.5 +3.2 98 +2 +2 1011.2 995.9
05 21.09 ЮВ 1
{2}
н/о н/о +3.4 +3.1 98 +2 +2 1011.8 996.5
06 21.09 Ю 1
{3}
н/о н/о +3.6 +3.3 98 +2 +2 1012.2 996.9 +3.4 +4.3 4
07 21.09 Ю 1
{3}
н/о н/о +4.7 +4.4 98 +3 +3 1012.6 997.4 0.1
08 21.09 ЮЗ 1
{2}
н/о н/о +5.4 +5.0 97 +4 +4 1013.1 997.9
09 21.09 З 1
{1}
н/о н/о +5.7 +5.0 95 +4 +4 1013.5 998.3
10 21.09 штиль 0
{1}
н/о н/о +6.4 +5.5 94 +5 +5 1013.9 998.9
11 21.09 С 1
{2}
н/о н/о +7.4 +6.0 91 +6 +6 1014.4 999.3
12 21.09 штиль 0
{3}
н/о н/о +8.0 +4.6 79 +7 +7 1014.7 999.6
13 21.09 штиль 0
{2}
н/о н/о +8.0 +5.5 84 +7 +7 1015.0 999.9
14 21.09 С 1
{3}
н/о н/о +8.4 +3.9 73 +8 +8 1015.1 1000.2
15 21.09 С 1
{4}
н/о н/о +8.1 +1.9 65 +8 +8 1015.4 1000.3
16 21.09 В 1
{4}
н/о н/о +6.7 +3.2 78 +6 +6 1015.7 1000.5
17 21.09 В 1
{3}
н/о н/о +5.4 +2.8 83 +4 +4 1016.1 1000.9
18 21.09 В 2
{5}
н/о н/о +4.9 +1.4 78 +2 +2 1016.7 1001.4 +3.6 +8.6 0.1
19 21.09 В 2
{3}
н/о н/о +4.6 +1.6 81 +2 +2 1017.0 1001.7
20 21.09 В 2
{3}
н/о н/о +4.1 +1.8 85 +1 +1 1017.4 1002.1
21 21.09 В 2
{4}
н/о н/о +2.5 +0.6 87 -1 -1 1018.0 1002.6
22 21.09 В 1
{4}
н/о н/о +1.2 -0.4 89 -1 -1 1018.4 1002.9
23 21.09 СВ 1
{2}
н/о н/о +1.4 +0.7 95 -1 -1 1018.9 1003.4
00 22.09 В 1
{4}
н/о н/о +0.8 -0.2 93 -1 -1 1019.3 1003.8
01 22.09 С 1
{3}
н/о н/о +1.0 +0.6 97 -1 -1 1020.0 1004.5
02 22.09 В 1
{3}
н/о н/о +1.0 +0.6 97 -1 -1 1020.5 1005.0
03 22.09 ЮВ 1
{2}
н/о н/о +0.7 +0.3 97 -1 -1 1021.1 1005.5
04 22.09 В 2
{3}
н/о н/о -0.1 -0.5 97 -4 -4 1021.4 1005.8
05 22.09 В 1
{3}
н/о н/о -0.8 -1.2 97 -3 -3 1022.1 1006.4
06 22.09 ЮВ 1
{3}
н/о н/о -0.5 -1.0 96 -3 -3 1022.7 1007.1 -1.1 +5.0
07 22.09 В 2
{3}
н/о н/о +0.2 -0.9 92 -4 -4 1023.1 1007.5
08 22.09 штиль 0
{2}
н/о н/о +3.0 +0.4 83 +2 +2 1023.5 1008.0
09 22.09 СЗ 1
{2}
н/о н/о +4.2 0.0 74 +3 +3 1023.3 1007.9
10 22.09 С 1
{2}
н/о н/о +5.1 -0.1 69 +4 +4 1023.3 1007.9
11 22.09 С 1
{2}
н/о н/о +6.0 -0.5 63 +5 +5 1023.2 1007.9
12 22.09 СЗ 1
{3}
н/о н/о +7.3 -1.4 54 +7 +7 1023.0 1007.8
13 22.09 СЗ 1
{2}
н/о н/о +7.9 -1.6 51 +8 +8 1022.7 1007.5
14 22.09 штиль 0
{2}
н/о н/о +8.9 -1.5 48 +9 +9 1022.5 1007.4
15 22.09 СЗ 1
{2}
н/о н/о +8.4 -1.4 50 +8 +8 1022.5 1007.3
16 22.09 Ю 1
{2}
н/о н/о +7.8 -0.2 57 +7 +7 1022.5 1007.3
17 22.09 В 2
{3}
н/о н/о +4.6 -0.8 68 +2 +2 1022.7 1007.3
18 22.09 В 3
{4}
н/о н/о +4.0 -2.0 65 +1 +1 1022.7 1007.3 -0.9 +9.1
19 22.09 В 3
{4}
н/о н/о +2.8 -2.1 70 -1 -1 1023.1 1007.6
20 22.09 В 3
{4}
н/о н/о +1.8 -2.1 75 -2 -2 1023.2 1007.7
21 22.09 В 2
{4}
н/о н/о +1.1 -2.1 79 -2 -2 1023.4 1007.8
22 22.09 СВ 1
{5}
н/о н/о +0.3 -2.6 81 -2 -2 1023.6 1008.0
23 22.09 В 2
{4}
н/о н/о +0.2 -2.5 82 -3 -3 1023.4 1007.8

 

Местоположение метеостанции Сельджеля (Норвегия): широта 66.13 долгота 13.58 высота над уровнем моря 126 м.

В архиве по умолчанию представлена погода в Сельджеля за последнюю неделю. Архивные данные за месяц целиком и за предыдущие месяцы, начиная с января 2011 года, Вы можете получить, выбрав интересующий диапазон дат из раскрывающегося списка и нажав кнопку "Ввод!".


*Определитесь, кто Вы:
робот инопланетянин человек

Внимание! Время в таблицах - всемирное. Для получения местного времени необходимо прибавить поправку, которая равна 1 ч.

Смотрите также архив погоды в соседних городах и на ближайших метеорологических станциях:

Погода в Скамдале (Норвегия) (19 км)
Погода в Аэропорту Mo i Rana (Норвегия) (41 км)
Погода в Мосьен аэропорту (Норвегия) (42 км)
Погода в Солвер III (Норвегия) (51 км)
Погода в Сторфоршее (Норвегия) (52 км)
Погода в Саннесшёэн аэропорту (Норвегия) (54 км)
Погода в Лаксфорсе (Норвегия) (58 км)
Погода в Хьётте (Норвегия) (62 км)
Погода в Варнтреске (Норвегия) (70 км)
Погода в Хяртасене (Норвегия) (74 км)

Пояснения к столбцам:

Ветер - указаны скорость ветра в м/с - средняя за 10 мин, порывы в срок и между сроками (в фигурных скобках) и направление, откуда дует ветер: С - северный, СВ - северо-восточный, В - восточный, ЮВ - юго-восточный, Ю - южный, ЮЗ - юго-западный, З - западный, СЗ - северо-западный.
Видимость - горизонтальная дальность видимости в метрах или километрах. При видимости от 1 до 10 км при отсутствии осадков обычно наблюдается дымка, при ухудшении видимости до 1 км и менее - туман. В сухую погоду видимость может ухудшаться дымом, пылью или мглою.
Явления - указаны атмосферные явления, наблюдавшиеся в срок или в последний час перед сроком; фигурными скобками обозначены явления, наблюдавшиеся между сроками (за 1-3 часа до срока); квадратными скобками обозначены град или гололедные отложения с указанием их диаметра в мм.
Облачность - указаны через наклонную черту общая и нижняя облачность в баллах и высота нижней границы облаков в метрах; квадратными скобками обозначены формы облаков: Ci - перистые, Cs - перисто-слоистые, Cc - перисто-кучевые, Ac - высококучевые, As - высокослоистые, Sc - слоисто-кучевые, Ns - слоисто-дождевые, Cu - кучевые, Cb - кучево-дождевые. Подробнее классификацию облаков см. в Атласе облаков (PDF).
T - Температура воздуха - температура, измеренная на высоте 2 м над землей.
Td - Температура точки росы - температура, при понижении до которой содержащийся в воздухе водяной пар достигнет насыщения.
f - Относительная влажность воздуха - влажноcть воздуха, измеренная на высоте 2 м над землей.
Te - Эффективная температура - температура, которую ощущает одетый по сезону человек в тени. Характеристика душности погоды. При расчете учитывается влияние влажности воздуха и скорости ветра на теплоощущения человека.
Tes - Эффективная температура на солнце - температура, которую ощущает человек, с поправкой на солнечный нагрев. Характеристика знойности погоды. Зависит от высоты солнца над горизонтом, облачности и скорости ветра. Ночью, в пасмурную погоду, а также при ветре 12 м/с и более поправка равна нулю.
P - Атмосферное давление - приведенное к уровню моря атмосферное давление.
Po - Атмосферное давление - измеренное на уровне метеостанции атмосферное давление.
Tmin - Минимальная температура - минимум температуры воздуха на высоте 2 м над землей.
Tmax - Максимальная температура - максимум температуры воздуха на высоте 2 м над землей.
R - Количество осадков - Количество выпавших осадков за период времени, мм. При наведении курсора мыши на число - период времени, за который выпало указанное количество осадков.
R24 - Количество осадков - Количество выпавших осадков за 24 часа, мм.
S - Снежный покров - Высота снежного покрова, см. При наведении курсора мыши на число - состояние снежного покрова и степень покрытия местности в баллах.